Hourly Data Report for July 10, 2021

CLYDE RIVER A
NUNAVUT
Current Station Operator: NAVCAN

70°29'09.000" N
68°31'01.000" W
26.50 m
2400804
71090
YCY

Download Data

Hourly Data (July 2021)
Hourly Data Report for July 10, 2021
TIME
LST
Temp Definition
°C
Dew Point Definition
°C
Rel Hum Definition
%
Precip. Amount Definition
mm

Wind Dir Definition
10's deg

Wind Spd Definition
km/h
Visibility Definition
km
Stn Press Definition
kPa
Hmdx Definition


Wind Chill Definition


Weather Definition


00:00 -0.6 -0.6 100 0.0   0 0.2 100.90     Freezing Fog
01:00 -0.5 -0.5 100 0.0   0 16.1 100.88     LegendNANA
02:00 -0.3 -0.3 100 0.0 33 4 16.1 100.89   -2 LegendNANA
03:00 0.5 0.4 99 0.0 5 4 16.1 100.89     LegendNANA
04:00 1.1 0.7 97 0.0 6 5 16.1 100.91     LegendNANA
05:00 1.9 1.2 95 0.0   0 16.1 100.92     LegendNANA
06:00 4.0 2.2 88 0.0 29 8 16.1 100.91     LegendNANA
07:00 4.9 2.5 84 0.0 LegendMM 4 16.1 100.90     LegendNANA
08:00 6.7 2.8 76 0.0 28 5 16.1 100.87     LegendNANA
09:00 10.5 3.0 60 0.0 14 26 16.1 100.82     LegendNANA
10:00 10.1 3.2 62 0.0 13 28 16.1 100.81     LegendNANA
11:00 11.2 2.2 54 0.0 15 32 16.1 100.79     LegendNANA
12:00 10.8 3.0 58 0.0 13 24 16.1 100.80     LegendNANA
13:00 11.1 3.0 57 0.0 12 21 16.1 100.80     LegendNANA
14:00 9.4 2.5 62 0.0 13 22 16.1 100.78     LegendNANA
15:00 10.6 3.2 60 0.0 12 22 16.1 100.78     LegendNANA
16:00 6.3 2.4 76 0.0 12 26 16.1 100.79     LegendNANA
17:00 5.4 2.5 82 0.0 13 24 16.1 100.79     LegendNANA
18:00 5.6 3.0 83 0.0 13 26 16.1 100.80     LegendNANA
19:00 5.1 2.7 84 0.0 13 24 16.1 100.76     LegendNANA
20:00 5.2 2.7 84 0.0 12 13 16.1 100.76     LegendNANA
21:00 3.7 2.0 89 0.0 11 13 16.1 100.75     LegendNANA
22:00 3.0 1.5 90 0.0 12 17 16.1 100.73     LegendNANA
23:00 2.7 1.6 92 0.0 12 11 16.1 100.69     LegendNANA

Notes on Data Quality.

Legend

  • E = Estimated
  • M = Missing
  • NA = Not Available*
  • [empty] = Indicates an unobserved value
Date modified: